Regional Weather Roundup
Issued by NWS State College, PA

Home | Current Version | Previous Version | Text Only | Print | Product List | Glossary On
Versions: 1 2 3 4 5 6 7 8 9 10 11 12 13 14 15 16 17 18 19 20 21 22 23 24 25 26 27 28 29 30 31 32 33 34 35 36 37 38 39 40 41 42 43 44 45 46 47 48 49 50
000
ASUS41 KCTP 212210
RWRCTP

REGIONAL WEATHER ROUNDUP
NATIONAL WEATHER SERVICE STATE COLLEGE PA
500 PM EST TUE NOV 21 2017

Note: "fair" indicates few or no clouds below 12,000 feet with no
significant weather and/or obstructions to visibility.

* = STATION THAT DOES NOT REPORT PRECIPITATION /E.G. RAIN...SNOW...ETC/
    THUNDER OR FOG.

PAZ002>004-007>009-013>016-020>023-029>032-212300-
WESTERN PENNSYLVANIA

CITY           SKY/WX    TMP DP  RH WIND       PRES   REMARKS
ERIE           CLOUDY    51  28  41 SW10      29.84R
MEADVILLE      NOT AVBL
FRANKLIN*      CLOUDY    48  26  42 SW13      29.88R
NEW CASTLE     FAIR      51  27  39 SW7       29.89S
BEAVER COUNTY  CLEAR     54  25  32 SW12      29.89S
BUTLER*        CLEAR     52  26  36 SW9       29.90R
PITTSBURGH INT PTCLDY    54  27  35 SW8       29.90R
PITTSBURGH     CLEAR     54  24  31 SW12G22   29.90S
INDIANA*       CLEAR     50  27  40 SW7G13    29.94S
LATROBE        CLEAR     54  27  35 SW12G23   29.93S
WASHINGTON CO* CLEAR     53  29  39 SW7       29.93F
$$

PAZ004>006-010>012-017>019-024>028-033>037-041-042-045-046-049>053-212300-
CENTRAL PENNSYLVANIA

CITY           SKY/WX    TMP DP  RH WIND       PRES   REMARKS
BRADFORD       CLEAR     48  25  40 SW8G20    29.86R
DUBOIS         CLEAR     47  24  40 SW8       29.88R
CLEARFIELD     CLEAR     51  26  37 SW9       29.90R
JOHNSTOWN      CLEAR     50  22  33 SW13      29.91R
ALTOONA        CLEAR     50  28  42 S8        29.92S
STATE COLLEGE  CLEAR     54  25  32 S9        29.91R
WILLIAMSPORT   CLOUDY    54  27  35 S14       29.91S
SELINSGROVE    CLOUDY    51  29  42 S8        29.95R
FT INDIANTOWN  PTCLDY    48  29  49 CALM      29.98S
CAPITAL CITY   CLOUDY    52  27  38 SW5       29.99S
HARRISBURG     MOCLDY    49  32  52 CALM      29.98S
YORK           CLEAR     49  32  52 CALM      29.98F
$$

PAZ038>040-043-044-047-048-054-055-060>062-067>071-212300-
EASTERN PENNSYLVANIA

CITY           SKY/WX    TMP DP  RH WIND       PRES   REMARKS
SCRANTON       CLOUDY    51  25  36 S9G18     29.95R
MOUNT POCONO   CLOUDY    43  24  47 S8        29.96R
ALLENTOWN      CLEAR     50  30  46 SW8       30.00R
QUAKERTOWN*    PTCLDY    50  32  50 SW5       30.01S
READING        CLEAR     51  33  50 SE3       29.99S
LANCASTER      CLEAR     51  34  52 S7        29.99F
COATESVILLE    CLOUDY    52  36  54 S8        30.02S
POTTSTOWN      PTCLDY    49  31  49 CALM      30.02F
BLUE BELL      CLOUDY    50  34  53 S6        30.02F
DOYLESTOWN     PTCLDY    51  30  44 CALM      30.00F
WILLOW GROVE   NOT AVBL
NORTH PHILA    CLOUDY    57  35  43 SW10      30.04R
PHILADELPHIA   CLOUDY    55  36  48 S9G17     30.03F
$$



USA.gov is the U.S. government's official web portal to all federal, state and local government web resources and services.